TDRS 12

Last updated on Thu Dec 18 2025 00:02:41 GMT+0000 (Coordinated Universal Time)

1 39504U 14004A 25351.55964413 -.00000249 00000+0 00000+0 0 9997 2 39504 3.8094 15.7949 0006489 243.3945 347.5047 1.00280034 42452
UTC large
Height (km)
Speed (km/s)
/
Latitude / Longitude
Inclination (degrees)
Orbital Period (minutes)
Azimuth
Elevation
Range (km)
Doppler Factor

Next 0 passes for location: London (51.5072 / 0.1276)

Sorry there are no passes over London.